Tracking 17149 objects as of 22-May-2015
HD Live streaming from Space Station

THORAD AGENA D DEB


THORAD AGENA D DEB is no longer on orbit
THORAD AGENA D DEB is classified as:


NORAD ID: 4701
Int'l Code: 1970-025BP
Perigee: N/A
Apogee: N/A
Inclination: N/A
Period: N/A
Semi major axis: N/A
RCS: N/A
Launch date: April 8, 1970
Source: United States (US)
Decay date: 1972-07-22

Note: This is SATELLITE DEBRIS
Your satellite tracking list
Your tracking list is empty





NASA's NSSDC Master Catalog

Two Line Element Set (TLE):
1 04701U 70025 BP 72202.46822819  .01119649 +00000-0 +00000-0 0  9990
2 04701 100.0052 313.8194 0036340 271.3875 088.3180 16.08659645122070

Source of the keplerian elements: AFSPC

N2YO: 438